Regional Weather Roundup
Issued by NWS

Home | Current Version | Previous Version | Text Only | Print | Product List | Glossary On
Versions: 1 2 3 4 5 6 7 8 9 10 11 12 13 14 15 16 17 18 19 20 21 22 23 24 25 26 27 28 29 30 31 32 33 34 35 36 37 38 39 40 41 42 43 44 45 46 47 48 49 50
000
ASUS45 KBOU 281207
RWRCO

WEATHER ROUNDUP FOR COLORADO
NATIONAL WEATHER SERVICE DENVER/BOULDER CO
600 AM MDT THU MAY 28 2015

NOTE: "FAIR" INDICATES FEW OR NO CLOUDS BELOW 12000 FEET WITH NO
SIGNIFICANT WEATHER AND/OR OBSTRUCTIONS TO VISIBILITY.

COZ001>005-013-030-031-281300-
...NORTHWEST COLORADO...

CITY           SKY/WX    TMP DP  RH WIND       PRES   REMARKS
CRAIG          CLOUDY    46  44  93 CALM      30.16R
HAYDEN         MOCLDY    45  37  76 CALM      30.16S
MEEKER         CLOUDY    46  42  86 CALM      30.16S
MOUNT WERNER   NOT AVBL
STEAMBOAT SPGS CLOUDY    43  42  95 CALM      30.17R
WALDEN         CLOUDY    41  36  81 S9        30.20S
$$

COZ006>008-011-281300-
...WEST CENTRAL VALLEYS...

CITY           SKY/WX    TMP DP  RH WIND       PRES   REMARKS
GRAND JUNCTION PTCLDY    49  47  93 E5        30.10F
MONTROSE       CLEAR     45  43  93 SE7       30.18R
EAGLE          CLOUDY    43  43 100 CALM      30.23R
RIFLE          MOCLDY    47  44  90 SE5       30.16S
DELTA          CLEAR     49  43  80 NE3       30.14S
NUCLA          CLEAR     45  41  87 SE9       30.18S
$$

COZ017>023-064>068-281300-
...SOUTHWEST COLORADO...

CITY           SKY/WX    TMP DP  RH WIND       PRES   REMARKS
DURANGO        MOCLDY    42  36  79 CALM      30.16R
CORTEZ         CLEAR     41  38  89 CALM      30.13R
PAGOSA SPRINGS MOCLDY    43  35  74 CALM      30.22R
TELLURIDE      PTCLDY    42  34  72 SE5       30.30R
WOLF CREEK PAS NOT AVBL
$$

COZ009-010-012-014-032>034-037-058>063-281300-
...CENTRAL COLORADO...

CITY           SKY/WX    TMP DP  RH WIND       PRES   REMARKS
ASPEN          PTCLDY    37  34  89 N3        30.21R
BUENA VISTA    MOCLDY    44  36  74 CALM      30.22R
COPPER MTN     PTCLDY    34  28  80 S10G20    30.36S WCI  26
BERTHOUD PASS  FAIR      30  23  74 W23G31    30.39R WCI  17
COTTONWOOD PAS MOCLDY    45  30  57 W6        30.29R
GUNNISON       PTCLDY    37  30  75 N6        30.28F
KREMMLING      CLOUDY    43  36  75 CALM      30.22S
LEADVILLE      PTCLDY    29  28  96 NE3       30.28F
MONARCH PASS   MOCLDY    32  30  93 W25       30.48S WCI  19
SALIDA         MOCLDY    46  38  73 CALM      30.29S
SUNLIGHT       CLOUDY    36  36 100 CALM      30.35S FOG
WILKERSON PASS MOCLDY    36  30  80 SW12G17   30.37S
$$

COZ069>075-281300-
...SAN LUIS VALLEY/SANGRE DE CRISTO MOUNTAINS...

CITY           SKY/WX    TMP DP  RH WIND       PRES   REMARKS
ALAMOSA        PTCLDY    39  34  82 NW7       30.20S
LA VETA PASS   MOCLDY   N/A N/A N/A MISG      30.33R
SAGUACHE       CLOUDY    45  34  65 N9G18     30.23F
$$

COZ035-036-038>040-281300-
...NORTHERN COLORADO FRONT RANGE...

CITY           SKY/WX    TMP DP  RH WIND       PRES   REMARKS
DENVER INTL AP FOG       54  52  93 W10       30.08S VSB 1/4
DMNS CITY PARK   N/A     51  49  90 SW6       30.08S
AURORA         MOCLDY    52  51  99 SW7       30.10S
FRONT RANGE AP CLOUDY    55  54  94 MISG      30.09S FOG
ERIE MUNI ARPT PTCLDY    50  49  97 CALM      30.08R FOG
BOULDER MUN AP PTCLDY    50  48  93 SW5       30.08R
CENTENNIAL     MOCLDY    49  45  86 W7        30.11S
BROOMFIELD     CLOUDY    52  50  93 SW6       30.10S
FORT COLLINS   PTCLDY    55  52  88 CALM      30.08R
LONGMONT       PTCLDY    51  49  92 S3        30.10R
$$

COZ041-046-047-076>085-087-088-281300-
...PIKES PEAK/PALMER DIVIDE AND SOUTHERN FOOTHILLS...

CITY           SKY/WX    TMP DP  RH WIND       PRES   REMARKS
COLO. SPRINGS  MOCLDY    50  44  80 NW6       30.12F
A. F. ACADEMY  CLOUDY    45  40  82 N6        30.14R
ELLICOTT       MOCLDY   N/A N/A N/A N7        30.10S
FALCON         MOCLDY    47  43  87 W7        30.16R
FORT CARSON    MOCLDY    48  40  73 NW12      30.09F
LIMON          FOG       47  47 100 S6        30.08S VSB<1/4
MONUMENT HILL  MOCLDY    45  37  76 SE7       30.17R
TRINIDAD       PTCLDY    50  41  71 W9        30.10R
$$

COZ042>045-048>051-090-091-281300-
...NORTHEAST COLORADO...

CITY           SKY/WX    TMP DP  RH WIND       PRES   REMARKS
GREELEY ARPT   MOCLDY    54  52  94 CALM      30.06S
AKRON          PTCLDY    51  50  96 S7        30.02F
BURLINGTON     CLOUDY    59  57  93 S20G29    30.02S FOG
WRAY           CLOUDY   N/A N/A N/A CALM      30.02F
STERLING       PTCLDY    50  50 100 CALM      30.00S
HOLYOKE        MOCLDY    55  52  88 SE5       30.01F
FORT MORGAN    PTCLDY    51  49  93 CALM      30.04R
$$

COZ086-089-092>099-281300-
...SOUTHEAST COLORADO...

CITY           SKY/WX    TMP DP  RH WIND       PRES   REMARKS
PUEBLO         MOCLDY    52  50  93 N7        30.05R
LA JUNTA       PTCLDY    55  53  93 E8        30.02F FOG
LAMAR          CLOUDY    60  58  92 SE7       30.00F
SPRINGFIELD      N/A     57  57 100 S14       30.05F
$$



USA.gov is the U.S. government's official web portal to all federal, state and local government web resources and services.